Location: State Line Observation Field
(36.5320°N, 77.5360°W)
Time: 14:07:19
(UTC-04:00)

M-CUBED/EXP-1 PRIME - Visible Passes

Search period start: 14 May 2021 00:00
Search period end: 24 May 2021 00:00
Orbit: 428 x 659 km, 101.7° (Epoch: 13 May)

Date Brightness Start Highest point End Pass type
(mag) Time Alt. Az. Time Alt. Az. Time Alt. Az.
21 May ? 01:41:02 10° N 01:41:06 10° N 01:41:06 10° N visible
22 May ? 01:34:34 10° N 01:34:41 11° N 01:34:41 11° N visible
23 May ? 01:28:07 10° N 01:28:15 11° N 01:28:15 11° N visible
